Missoula, MT

2:14 AM MDT on May 28, 2018 (GMT -0600)
Missoula International

Weather History for KMSO - May, 2012

Change the Weather History Date:

Tuesday, May 1, 2012

  Actual Average Record
Temperature  
Mean Temperature 42 °F 49 °F  
Max Temperature 52 °F 63 °F 82 °F (1901)
Min Temperature 31 °F 36 °F 21 °F (1954)
Degree Days  
Heating Degree Days 23 16  
Month to date heating degree days 23 16  
Since 1 July heating degree days 6439 6779  
Cooling Degree Days 0 0  
Month to date cooling degree days 0 0  
Year to date cooling degree days 0 0  
Moisture  
Dew Point 26 °F    
Average Humidity 55    
Maximum Humidity 75    
Minimum Humidity 34    
Precipitation  
Precipitation T in 0.04 in 0.76 in (1915)
Month to date precipitation T 0.04  
Year to date precipitation 4.82 3.81  
Snow  
Snow 0.00 in - - ()
Month to date snowfall 0.0  
Year to date snowfall 28.9  
Since 1 July snowfall 39.8  
Snow Depth 0.00 in    
Sea Level Pressure  
Sea Level Pressure 29.82 in    
Wind  
Wind Speed 9 mph (WNW)    
Max Wind Speed 21 mph    
Max Gust Speed 24 mph    
Visibility 10 miles    
Events Rain    
T = Trace of Precipitation, MM = Missing Value Source: NWS Daily Summary

Daily Weather History Graph

Daily Weather History Graph

Search for Another Location

Airport or City:

Astronomy

May. 01, 2012 Rise Set
Actual Time 6:20 AM MDT 8:47 PM MDT
Civil Twilight 5:46 AM MDT 9:21 PM MDT
Nautical Twilight 5:03 AM MDT 10:04 PM MDT
Astronomical Twilight 4:15 AM MDT 10:53 PM MDT
Moon 3:38 PM MDT (5/1) 3:39 AM MDT (5/1)
Length of Visible Light 15h 35m
Length of Day
14h 27m
Waxing Gibbous, 74% of the Moon is Illuminated
May 1
Waxing Gibbous
May 5
Full
May 12
Last Quarter
May 20
New
May 28
First Quarter

Hourly Weather History & Observations

Time (MDT) Temp. Windchill Dew Point Humidity Pressure Visibility Wind Dir Wind Speed Gust Speed Precip Events Conditions
12:53 AM 41.0 °F 37.1 °F 34.0 °F 76% 29.74 in 10.0 mi East 5.8 mph - N/A   Partly Cloudy
1:53 AM 45.0 °F 43.5 °F 35.1 °F 68% 29.73 in 10.0 mi East 3.5 mph - N/A   Overcast
2:53 AM 46.0 °F 41.9 °F 28.9 °F 51% 29.74 in 10.0 mi SSW 8.1 mph - N/A   Overcast
3:53 AM 44.1 °F 40.1 °F 28.9 °F 55% 29.75 in 10.0 mi WSW 6.9 mph - N/A   Overcast
4:53 AM 44.1 °F 39.0 °F 26.1 °F 49% 29.77 in 10.0 mi West 9.2 mph - N/A   Overcast
5:53 AM 41.0 °F 33.9 °F 28.9 °F 62% 29.81 in 10.0 mi NW 12.7 mph - N/A   Overcast
6:53 AM 41.0 °F 33.5 °F 24.8 °F 53% 29.80 in 10.0 mi WNW 13.8 mph 20.7 mph N/A   Partly Cloudy
7:53 AM 41.0 °F 35.2 °F 23.0 °F 49% 29.85 in 10.0 mi West 9.2 mph - N/A   Scattered Clouds
8:53 AM 43.0 °F 37.7 °F 24.1 °F 47% 29.85 in 10.0 mi SSW 9.2 mph - N/A   Overcast
9:53 AM 46.0 °F 39.0 °F 23.0 °F 40% 29.85 in 10.0 mi WSW 17.3 mph - N/A   Partly Cloudy
10:53 AM 46.0 °F 39.9 °F 25.0 °F 44% 29.85 in 10.0 mi NW 13.8 mph 21.9 mph N/A   Overcast
11:53 AM 46.9 °F - 21.9 °F 37% 29.85 in 10.0 mi West 10.4 mph 27.6 mph N/A   Overcast
12:53 PM 48.0 °F - 21.9 °F 36% 29.86 in 10.0 mi West 19.6 mph 24.2 mph N/A   Overcast
1:53 PM 48.9 °F - 23.0 °F 36% 29.85 in 10.0 mi WNW 17.3 mph - N/A   Overcast
2:53 PM 50.0 °F - 26.1 °F 39% 29.84 in 10.0 mi North 10.4 mph - 0.00 in Rain Light Rain
3:53 PM 48.9 °F - 23.0 °F 36% 29.84 in 10.0 mi Variable 3.5 mph - 0.00 in   Overcast
4:53 PM 48.9 °F - 25.0 °F 39% 29.83 in 10.0 mi WNW 5.8 mph - 0.00 in   Overcast
5:53 PM 48.9 °F - 24.1 °F 38% 29.83 in 10.0 mi North 4.6 mph - N/A   Overcast
6:53 PM 48.9 °F - 24.1 °F 38% 29.83 in 10.0 mi WSW 12.7 mph - N/A   Overcast
7:53 PM 48.0 °F - 25.0 °F 41% 29.83 in 10.0 mi West 11.5 mph - N/A   Overcast
8:53 PM 43.0 °F 39.5 °F 23.0 °F 45% 29.84 in 10.0 mi NW 5.8 mph - N/A   Clear
9:53 PM 39.9 °F - 25.0 °F 55% 29.85 in 10.0 mi Calm Calm - N/A   Clear
10:53 PM 36.0 °F 31.1 °F 26.1 °F 67% 29.86 in 10.0 mi North 5.8 mph - N/A   Partly Cloudy
11:53 PM 34.0 °F - 26.1 °F 73% 29.85 in 10.0 mi Calm Calm - N/A   Partly Cloudy